Date String (YYYY-MM-DD hh:mm:ss) UTC,Instrument flags,Ambient pressure (hPa),Sample flow (lpm),Bypass flow (lpm),Sample temperature (°C),Ambient temperature (°C),ASC tube jacket temperature (°C),LED temperature (°C),Box temperature (°C),Sample RH (%),Span deviation,Mass concentration (μg/m³),Mass concentration (μg/m³),Mass concentration (μg/m³)
DateTimeUTC,F1_M11,P_M11,Q1_M11,Q2_M11,T1_M11,T2_M11,T3_M11,T4_M11,T5_M11,U1_M11,ZSPAN_M11,X0_M11,X2_M11,X1_M11
2021-09-21 16:00:00,,0841.6,5.00,0.00,28.0,27.2,00.0,37.1,29.7,15.1,0000.0,0003.73,0001.83,0001.54
2021-09-21 16:01:00,,0841.6,4.99,0.00,28.0,27.2,00.0,37.1,29.8,15.6,0000.0,0003.65,0001.79,0001.52
2021-09-21 16:02:00,,0841.6,4.99,0.00,28.0,27.2,00.0,37.1,29.8,14.9,0000.0,0003.53,0001.74,0001.50
2021-09-21 16:03:00,,0841.6,5.01,0.00,28.0,27.2,00.0,37.1,29.8,15.1,0000.0,0003.38,0001.69,0001.48
2021-09-21 16:04:00,,0841.6,5.00,0.00,28.0,27.2,00.0,37.1,29.8,14.9,0000.0,0003.28,0001.68,0001.49
2021-09-21 16:05:00,,0841.6,5.00,0.00,28.0,27.2,00.0,37.1,29.8,14.9,0000.0,0003.14,0001.63,0001.48
2021-09-21 16:06:00,,0841.6,4.99,0.00,28.0,27.3,00.0,37.1,29.8,14.7,0000.0,0004.15,0001.62,0001.47
2021-09-21 16:07:00,,0841.6,5.00,0.00,28.0,27.3,00.0,37.1,29.9,14.2,0000.0,0004.33,0001.63,0001.47
2021-09-21 16:08:00,,0841.6,4.99,0.00,28.0,27.3,00.0,37.1,29.9,14.9,0000.0,0003.86,0001.61,0001.45
2021-09-21 16:09:00,,0841.6,5.00,0.00,28.0,27.3,00.0,37.1,29.8,14.9,0000.0,0003.86,0001.64,0001.45
2021-09-21 16:10:00,,0841.6,5.01,0.00,28.0,27.3,00.0,37.1,29.8,14.9,0000.0,0003.87,0001.69,0001.45
2021-09-21 16:11:00,,0841.6,5.01,0.00,28.1,27.3,00.0,37.1,29.8,14.6,0000.0,0004.01,0001.77,0001.48
2021-09-21 16:12:00,,0841.5,5.00,0.00,28.1,27.3,00.0,37.1,29.9,14.8,0000.0,0004.06,0001.79,0001.48
2021-09-21 16:13:00,,0841.6,4.99,0.00,28.1,27.4,00.0,37.1,29.9,15.1,0000.0,0004.19,0001.85,0001.48
2021-09-21 16:14:00,,0841.5,5.00,0.00,28.1,27.4,00.0,37.2,29.9,15.1,0000.0,0004.29,0001.89,0001.50
2021-09-21 16:15:00,,0841.6,5.01,0.00,28.1,27.4,00.0,37.2,30.0,16.5,0000.0,0004.37,0001.92,0001.51
2021-09-21 16:16:00,,0841.6,4.99,0.00,28.2,27.4,00.0,37.2,30.0,15.4,0000.0,0004.53,0002.01,0001.52
2021-09-21 16:17:00,,0841.6,5.01,0.00,28.2,27.4,00.0,37.2,30.0,14.9,0000.0,0003.49,0002.05,0001.53
2021-09-21 16:18:00,,0841.6,4.99,0.00,28.1,27.4,00.0,37.2,30.0,14.7,0000.0,0003.20,0002.06,0001.53
2021-09-21 16:19:00,,0841.5,5.00,0.00,28.2,27.4,00.0,37.2,29.9,14.5,0000.0,0003.27,0002.07,0001.53
2021-09-21 16:20:00,,0841.5,5.01,0.00,28.2,27.4,00.0,37.2,29.9,14.0,0000.0,0003.34,0002.09,0001.53
2021-09-21 16:21:00,,0841.5,4.99,0.00,28.2,27.4,00.0,37.2,30.0,14.0,0000.0,0003.21,0002.04,0001.53
2021-09-21 16:22:00,,0841.5,5.01,0.00,28.2,27.4,00.0,37.2,30.0,14.1,0000.0,0003.09,0002.01,0001.50
2021-09-21 16:23:00,,0841.5,5.00,0.00,28.2,27.4,00.0,37.3,30.0,14.8,0000.0,0003.19,0002.02,0001.51
2021-09-21 16:24:00,,0841.5,5.00,0.00,28.2,27.5,00.0,37.3,30.0,14.2,0000.0,0003.13,0001.99,0001.52
2021-09-21 16:25:00,,0841.5,5.01,0.00,28.2,27.5,00.0,37.3,30.0,14.7,0000.0,0003.04,0001.96,0001.51
2021-09-21 16:26:00,,0841.6,5.00,0.00,28.3,27.5,00.0,37.3,30.1,15.4,0000.0,0002.97,0001.94,0001.51
2021-09-21 16:27:00,,0841.5,5.00,0.00,28.3,27.5,00.0,37.3,30.1,15.2,0000.0,0002.96,0001.91,0001.53
2021-09-21 16:28:00,,0841.5,5.00,0.00,28.3,27.5,00.0,37.3,30.1,15.2,0000.0,0002.95,0001.91,0001.55
2021-09-21 16:29:00,,0841.5,5.01,0.00,28.3,27.5,00.0,37.3,30.1,15.4,0000.0,0002.91,0001.91,0001.57
2021-09-21 16:30:00,,0841.6,5.01,0.00,28.3,27.5,00.0,37.3,30.1,15.9,0000.0,0002.91,0001.93,0001.60
2021-09-21 16:31:00,,0841.6,4.99,0.00,28.3,27.5,00.0,37.3,30.1,15.3,0000.0,0002.91,0001.92,0001.62
2021-09-21 16:32:00,,0841.5,5.00,0.00,28.3,27.5,00.0,37.3,30.1,15.0,0000.0,0002.85,0001.92,0001.63
2021-09-21 16:33:00,,0841.6,5.00,0.00,28.3,27.5,00.0,37.3,30.1,15.6,0000.0,0002.84,0001.92,0001.66
2021-09-21 16:34:00,,0841.6,5.01,0.00,28.3,27.5,00.0,37.4,30.1,15.5,0000.0,0002.76,0001.93,0001.68
2021-09-21 16:35:00,,0841.6,5.00,0.00,28.3,27.5,00.0,37.4,30.1,15.3,0000.0,0002.75,0001.94,0001.70
2021-09-21 16:36:00,,0841.5,5.01,0.00,28.3,27.5,00.0,37.4,30.1,14.9,0000.0,0002.72,0001.93,0001.70
2021-09-21 16:37:00,,0841.5,5.00,0.00,28.3,27.5,00.0,37.4,30.1,15.0,0000.0,0002.69,0001.91,0001.68
2021-09-21 16:38:00,,0841.5,5.01,0.00,28.3,27.5,00.0,37.4,30.1,14.5,0000.0,0002.65,0001.90,0001.67
2021-09-21 16:39:00,,0841.5,5.00,0.00,28.3,27.6,00.0,37.4,30.1,14.3,0000.0,0002.62,0001.89,0001.65
2021-09-21 16:40:00,,0841.6,5.00,0.00,28.3,27.6,00.0,37.4,30.1,14.9,0000.0,0002.72,0001.93,0001.66
2021-09-21 16:41:00,,0841.6,5.00,0.00,28.3,27.6,00.0,37.4,30.1,14.7,0000.0,0002.73,0001.93,0001.66
2021-09-21 16:42:00,,0841.6,5.00,0.00,28.3,27.6,00.0,37.4,30.1,14.6,0000.0,0003.84,0001.93,0001.68
2021-09-21 16:43:00,,0841.5,4.99,0.00,28.3,27.6,00.0,37.4,30.1,14.5,0000.0,0004.07,0001.95,0001.69
2021-09-21 16:44:00,,0841.4,5.00,0.00,28.3,27.6,00.0,37.4,30.1,14.4,0000.0,0004.38,0001.96,0001.70
2021-09-21 16:45:00,,0841.4,5.00,0.00,28.4,27.6,00.0,37.4,30.1,14.9,0000.0,0004.49,0001.96,0001.69
2021-09-21 16:46:00,,0841.4,5.00,0.00,28.4,27.6,00.0,37.4,30.2,14.8,0000.0,0004.58,0001.98,0001.68
2021-09-21 16:47:00,,0841.4,5.00,0.00,28.4,27.7,00.0,37.4,30.2,15.4,0000.0,0004.72,0002.01,0001.68
2021-09-21 16:48:00,,0841.4,4.99,0.00,28.4,27.7,00.0,37.4,30.2,14.9,0000.0,0004.82,0002.05,0001.70
2021-09-21 16:49:00,,0841.4,5.00,0.00,28.4,27.7,00.0,37.4,30.3,14.9,0000.0,0004.92,0002.10,0001.71
2021-09-21 16:50:00,,0841.4,5.01,0.00,28.5,27.7,00.0,37.5,30.3,14.7,0000.0,0005.00,0002.12,0001.72
2021-09-21 16:51:00,,0841.4,5.01,0.00,28.5,27.7,00.0,37.5,30.3,14.8,0000.0,0005.15,0002.12,0001.70
2021-09-21 16:52:00,,0841.3,5.01,0.00,28.5,27.7,00.0,37.5,30.3,14.9,0000.0,0005.25,0002.11,0001.68
2021-09-21 16:53:00,,0841.3,5.00,0.00,28.5,27.8,00.0,37.5,30.3,14.0,0000.0,0004.13,0002.09,0001.65
2021-09-21 16:54:00,,0841.3,4.99,0.00,28.5,27.8,00.0,37.5,30.3,13.8,0000.0,0003.87,0002.07,0001.63
2021-09-21 16:55:00,,0841.4,4.99,0.00,28.5,27.8,00.0,37.5,30.3,13.9,0000.0,0003.58,0002.03,0001.61
2021-09-21 16:56:00,,0841.4,5.01,0.00,28.5,27.8,00.0,37.6,30.4,14.1,0000.0,0003.57,0002.02,0001.60
2021-09-21 16:57:00,,0841.4,5.00,0.00,28.5,27.8,00.0,37.6,30.4,14.0,0000.0,0004.36,0001.99,0001.58
2021-09-21 16:58:00,,0841.4,4.99,0.00,28.5,27.8,00.0,37.6,30.3,13.6,0000.0,0005.33,0001.96,0001.56
2021-09-21 16:59:00,,0841.3,5.02,0.00,28.5,27.8,00.0,37.6,30.3,13.7,0000.0,0005.72,0001.95,0001.56
